This is the latest recevied weather packets stored in our database for station/object DM1HF-13. If no packets are shown the sender has not sent any weather packets the latest 10 day(s).
| Time | Temp. | Humidity | Pressure | Rain* | Wind** | Luminosity | Snow |
|---|---|---|---|---|---|---|---|
| 1778148016 | 7.78° C | 95% | 1014.8 hPa | 3.56 mm | - | 28 W/m² | - |
| 1778147716 | 7.78° C | 95% | 1014.8 hPa | 7.37 mm | - | 31 W/m² | - |
| 1778147417 | 7.78° C | 95% | 1014.7 hPa | 5.84 mm | - | 31 W/m² | - |
| 1778147116 | 7.78° C | 95% | 1014.6 hPa | 7.11 mm | - | 21 W/m² | - |
| 1778146816 | 7.78° C | 95% | 1014.5 hPa | 7.62 mm | - | 22 W/m² | - |
| 1778146516 | 7.78° C | 95% | 1014.5 hPa | 8.89 mm | - | 21 W/m² | - |
| 1778146216 | 7.22° C | 95% | 1014.4 hPa | 2.79 mm | - | 23 W/m² | - |
| 1778145916 | 7.22° C | 95% | 1014.3 hPa | 4.83 mm | - | 30 W/m² | - |
| 1778145616 | 7.78° C | 95% | 1014.2 hPa | 3.56 mm | - | 30 W/m² | - |
| 1778145316 | 7.22° C | 95% | 1014.2 hPa | 3.81 mm | - | 29 W/m² | - |
| 1778145016 | 7.22° C | 95% | 1014.1 hPa | 5.33 mm | - | 27 W/m² | - |
| 1778144716 | 7.22° C | 96% | 1014.1 hPa | 4.06 mm | - | 28 W/m² | - |
| 1778144416 | 7.22° C | 95% | 1014 hPa | 11.43 mm | - | 22 W/m² | - |
| 1778144116 | 7.22° C | 96% | 1013.8 hPa | 5.59 mm | - | 23 W/m² | - |
| 1778143816 | 7.22° C | 95% | 1013.9 hPa | 11.18 mm | - | 18 W/m² | - |
| 1778143216 | 7.22° C | 95% | 1013.6 hPa | 7.62 mm | - | 19 W/m² | - |
| 1778142916 | 7.22° C | 95% | 1013.6 hPa | 8.64 mm | - | 16 W/m² | - |
| 1778142616 | 7.78° C | 95% | 1013.4 hPa | 4.57 mm | - | 17 W/m² | - |
| 1778142316 | 7.22° C | 95% | 1013.4 hPa | 3.81 mm | - | 18 W/m² | - |
| 1778142016 | 7.78° C | 95% | 1013.4 hPa | 0 mm | - | 21 W/m² | - |
| 1778141716 | 7.78° C | 95% | 1013.3 hPa | 2.29 mm | - | 22 W/m² | - |
| 1778141416 | 7.22° C | 95% | 1013.2 hPa | 1.52 mm | - | 28 W/m² | - |
| 1778141116 | 7.78° C | 95% | 1013.2 hPa | 0.51 mm | - | 24 W/m² | - |
| 1778140816 | 7.78° C | 95% | 1013.1 hPa | 7.87 mm | - | 22 W/m² | - |
| 1778140516 | 7.78° C | 95% | 1013.1 hPa | 7.62 mm | - | 17 W/m² | - |
* Rain latest hour (hover to see other rain measurements)
** Current wind speed in m/s (hover to see current wind gust speed)